Regional Weather Roundup
Issued by NWS Newport/Morehead, NC

Current Version | Previous Version | Text Only | Print | Product List | Glossary Off
Versions: 1 2 3 4 5 6 7 8 9 10 11 12 13 14 15 16 17 18 19 20 21 22 23 24 25 26 27 28 29 30 31 32 33 34 35 36 37 38 39 40 41 42 43 44 45 46 47 48 49 50
000 ASUS42 KMHX 040724 RWRMHX WEATHER ROUNDUP FOR EASTERN NORTH CAROLINA NATIONAL WEATHER SERVICE NEWPORT/MOREHEAD CITY NC 200 AM EST WED MAR 04 2015 NOTE: "FAIR" INDICATES FEW OR NO CLOUDS BELOW 12,000 FEET WITH NO SIGNIFICANT WEATHER AND/OR OBSTRUCTIONS TO VISIBILITY NCZ015>017-031-032-045>047-102-103-040800- NORTH COAST CITY SKY/WX TMP DP RH WIND PRES REMARKS EDENTON FOG 44 44 99 W6 30.03F VSB 1/2 ELIZABETH CITY FOG 46 45 96 SW9 30.02F VSB 1/2 KITTY HAWK CLOUDY 59 59 100 SW13G18 30.01F FOG MANTEO CLOUDY 57 57 100 SW17 30.02F FOG $$ NCZ045>047-081-094-103-104-040800- CENTRAL COAST CITY SKY/WX TMP DP RH WIND PRES REMARKS FRISCO FOG 54 54 100 SW10 30.05F VSB 3/4 SWANQUARTER N/A 54 N/A N/A SW14 30.00F $$ NCZ095-097-098-100-101-040800- SOUTHERN COAST CITY SKY/WX TMP DP RH WIND PRES REMARKS BEAUFORT FOG 55 55 100 SW9 30.08F VSB 3/4 CEDAR ISLAND N/A 63 N/A N/A S9G22 30.09S JACKSONVILLE FOG 52 51 97 SW6 30.08F VSB 1/8 PINEY ISLAND N/A N/A N/A N/A MISG 30.06F WILMINGTON FOG 47 46 97 CALM 30.10F VSB 1/4 $$ NCZ011>013-027>030-043-044-078>080-089-090>093-098-040800- COASTAL PLAIN CITY SKY/WX TMP DP RH WIND PRES REMARKS AHOSKIE CLOUDY 39 38 98 CALM 30.04F FOG CLINTON FOG 40 40 100 CALM 30.09F VSB 3/4 ELIZABETHTOWN FOG 42 42 100 S3 30.09F VSB 1/4 GOLDSBORO FOG 40 40 100 SW6 30.05F VSB 1/2 GREENVILLE FOG 41 41 100 W3 30.08S VSB 3/4 HAVELOCK CLOUDY 61 59 93 SW12G21 30.08F FOG KENANSVILLE FOG 42 42 100 CALM 30.08F VSB 1/2 KINSTON FOG 43 43 100 SW3 30.07F VSB 1/2 NEW BERN CLOUDY 54 53 97 S9 30.07F FOG RICHLANDS CLOUDY 48 45 87 SW9 30.08F VSB 1/2 ROCKY MOUNT CLOUDY 41 40 96 SW7 30.05F FOG WASHINGTON FOG 45 45 98 W5 30.06S VSB 1/2 WHITEVILLE FOG 44 43 97 CALM 30.08F VSB 1/4 $$ AMZ130-135-150-152-154-156-158-170-250-252-270-ANZ085-086-088-633-658-670-040800- MARINE OBSERVATIONS STATION/POSITION TIME TEMP WIND PRES WAVE SWELL AIR SEA DIR/SP/G HT/PER HT/PER (UTC) (F) (DEG/KT/KT) (MB) (FT/S) (FT/S) CHESAPEAKE LIGHT 0700 44 220/ 26/ 27 1014.6 64 E VA BEACH 0650 57 56 210/ 23/ 27 1015.0 6/ 6 2/11 DUCK 0700 47 35 230/ 11/ 13 1015.5 2 E DUCK 0611 35 N/A 3/ 5 10 NE DUCK 0622 37 N/A 4/ 6 OREGON INLET 0700 49 42 210/ 14/ 16 1016.9 HATTERAS CG 0700 55 43 220/ 8/ 13 1018.0 CAPE LOOKOUT 0700 61 200/ 14/ 16 1018.4 BEAUFORT LAB 0700 53 44 240/ 3/ 8 1017.6 27 SE WRIGHTSVLE NOT AVBL 5 SE WRIGHTSVLE NOT AVBL 225 S CAPE HAT 0650 70 72 190/ 17/ 21 1022.9 6/ 9 3/ 9 41 SE CHARLESTON 0650 70 68 190/ 12/ 16 1018.9 4/ 8 3/ 8 $$

USA.gov is the U.S. government's official web portal to all federal, state and local government web resources and services.